Location: Campos dos Goitacazes
(21.7500°S, 41.3000°W)
Time: 13:13:16
(UTC-03:00)

Tiangong - Pass Details

Date: 29 June 2024
Orbit: 374 x 378 km, 41.5° (Epoch: 16 July)

Event Time Altitude Azimuth Distance (km) Brightness Sun altitude
Rises 19:01:56 0° 315° (NW) 2,230 2.7 -24.4°
Reaches altitude 10° 19:04:00 10° 318° (NW) 1,383 1.4 -24.9°
Enters shadow 19:05:12 21° 324° (NW) 912 0.3 -25.1°
